FO-29 1 24278U 96046B 15267.16784994 -.00000041 00000-0 -68371-5 0 9994 2 24278 98.5534 222.6319 0350528 174.0656 258.9650 13.53056469943414 SO-33 1 25509U 98061B 15266.79163740 .00000485 00000-0 80742-4 0 9994 2 25509 031.4339 052.3842 0347850 217.9986 139.5615 14.30064553884077 RS-22 1 27939U 03042A 15267.31117577 .00000376 00000-0 76588-4 0 9996 2 27939 97.8533 64.8693 0014250 73.7315 286.5458 14.66154461640715 HO-68 1 36122U 09072B 15267.12682106 -.00000060 00000-0 -43517-4 0 9991 2 36122 100.1829 308.3587 0006959 249.4314 110.6054 13.16329526277479 AO-73 1 39444U 13066AE 15266.71117276 .00000927 00000-0 12426-3 0 9998 2 39444 097.7207 325.8178 0059893 173.0825 187.1228 14.80467244097401 EO-79 1 40025U 14033R 15267.31708696 .00000942 00000-0 11032-3 0 9998 2 40025 97.9416 167.6797 0011811 214.7700 145.2745 14.87375279 68527 XW-2A 1 40903U 15049E 15267.69630860 .00000005 00000-0 27792-6 0 9992 2 40903 97.4570 275.7668 0023936 286.3501 73.5631 15.16553106 759 XW-2F 1 40905U 15049G 15267.70248383 .00002003 00000-0 11678-3 0 9994 2 40905 97.4527 275.7558 0015245 231.2040 128.8341 15.11910592 722 XW-2C 1 40906U 15049H 15267.70177957 .00002347 00000-0 13602-3 0 9993 2 40906 97.4586 275.7612 0014757 234.6931 125.3428 15.12137473 775 LILACSAT-2 1 40908U 15049K 15267.70334671 .00001794 00000-0 10536-3 0 9991 2 40908 97.4656 275.7628 0015586 227.0777 132.9652 15.11633527 714 XW-2E 1 40909U 15049L 15267.70103898 .00003651 00000-0 21018-3 0 9998 2 40909 97.4582 275.7604 0014004 238.0036 122.0343 15.12380799 719 UO-11 1 14781U 84021B 15267.38853353 .00000388 00000-0 54670-4 0 9990 2 14781 97.7909 321.9745 0010039 105.0908 255.1417 14.82510941696721 AO-16 1 20439U 90005D 15267.39970520 .00000064 00000-0 39500-4 0 9999 2 20439 98.5455 202.1616 0009927 223.6255 248.5613 14.32570532340947 LO-19 1 20442U 90005G 15266.88158106 .00000052 00000-0 35147-4 0 9994 2 20442 098.5161 200.9084 0011032 212.1187 147.9326 14.32760644341014 AO-27 1 22825U 93061C 15266.86251777 .00000059 00000-0 40468-4 0 9991 2 22825 098.7188 217.0465 0008967 026.8224 356.7404 14.29904121146767 IO-26 1 22826U 93061D 15266.89260162 .00000053 00000-0 37614-4 0 9996 2 22826 098.7131 217.2319 0009350 018.4934 341.6586 14.30223117146943 GO-32 1 25397U 98043D 15266.92379814 .00000019 00000-0 27184-4 0 9999 2 25397 098.5296 214.3170 0002256 062.3482 338.4989 14.23560665893614 NO-44 1 26931U 01043C 15266.53541346 .00000046 00000-0 49673-4 0 9993 2 26931 67.0503 283.3971 0006269 275.8526 84.1860 14.30343318729864 SO-50 1 27607U 02058C 15266.49587027 .00000373 00000-0 73468-4 0 9994 2 27607 64.5538 258.5888 0083276 269.5062 89.6497 14.74849064685789 CO-55 1 27844U 03031E 15267.19587079 .00000147 00000-0 86425-4 0 9990 2 27844 98.6967 274.3167 0010086 21.4215 338.7383 14.21847371634503 CO-57 1 27848U 03031J 15266.96273411 .00000114 00000-0 71878-4 0 9990 2 27848 098.7065 274.0453 0010159 029.3653 350.8293 14.21488103634347 AO-51 1 28375U 04025K 15266.86388373 .00000113 00000-0 46407-4 0 9992 2 28375 98.2988 204.5047 0083478 32.3006 328.3256 14.41696574590704 CP3 1 31129U 07012N 15266.88569741 .00000662 00000-0 15169-3 0 9993 2 31129 97.9924 228.4319 0096761 7.0869 16.5931 14.55949198447483 CO-65 1 32785U 08021C 15267.23333817 .00000775 00000-0 92031-4 0 9995 2 32785 97.6393 307.1055 0014937 99.1121 321.6446 14.87071484400950 PRISM 1 33493U 09002B 15267.38265355 .00001877 00000-0 18293-3 0 9990 2 33493 98.2438 109.6265 0016607 8.7033 351.4498 14.93722286361387 SOHLA-1 1 33496U 09002E 15267.39065684 .00000215 00000-0 43073-4 0 9997 2 33496 98.2257 36.1954 0005845 197.8937 230.2832 14.71428040357763 TISAT-1 1 36799U 10035E 15267.34823324 .00001446 00000-0 16031-3 0 9992 2 36799 98.0201 8.9214 0011761 238.6969 162.9112 14.88854803281719 STUDSAT 1 36801U 10035G 15266.88469275 .00015911 00000-0 85597-3 0 9990 2 36801 098.0706 032.0733 0006284 158.7045 201.4448 15.14936908282773 ALMASAT-1 1 38078U 12006B 15267.39935264 .00028313 33220-5 47420-3 0 9999 2 38078 69.4531 349.3708 0453269 119.7926 244.9095 14.84623634189736 CUBEBUG-1 1 39153U 13018D 15267.24351499 .00000672 00000-0 97108-4 0 9996 2 39153 98.0138 351.3157 0015957 295.0183 64.9371 14.79406872130127 ESTCUBE-1 1 39161U 13021C 15267.36049843 .00000500 00000-0 88963-4 0 9998 2 39161 98.0686 349.4075 0010036 7.3236 352.8118 14.71305185127825 DUCHIFAT-1 1 40021U 14033M 15267.34719625 .00001464 00000-0 16406-3 0 9991 2 40021 97.9438 168.2154 0012396 214.9956 145.0446 14.88364452 68556 NANOSATCBR1 1 40024U 14033Q 15267.29934483 .00001221 00000-0 13937-3 0 9996 2 40024 97.9419 167.8651 0011641 214.0008 146.0463 14.87904787 68534 DTUSAT-2 1 40030U 14033W 15267.36733932 .00000956 00000-0 11292-3 0 9993 2 40030 97.9402 167.3957 0011381 207.1311 152.9311 14.87002478 68510 ANTELSAT 1 40034U 14033AA 15267.23157270 .00000656 00000-0 10737-3 0 9998 2 40034 97.9305 157.0389 0059877 161.1657 199.1786 14.72896660 67870 MET-2/21 1 22782U 93055A 15266.84651169 .00000016 00000-0 62977-6 0 9997 2 22782 82.5516 165.3910 0023491 46.3885 357.4045 13.83777550114244 OKEAN-4 1 23317U 94066A 15266.97017567 .00000527 00000-0 56140-4 0 9997 2 23317 082.5408 352.6309 0020110 006.9524 119.7739 14.86826362131988 NOAA-14 1 23455U 94089A 15267.32571727 -.00000010 00000-0 17620-4 0 9996 2 23455 98.7470 346.7142 0009989 152.4205 249.0960 14.14053041 69544 NOAA-15 1 25338U 98030A 15267.53599209 .00000082 00000-0 53323-4 0 9994 2 25338 98.7777 266.2631 0009615 237.1877 122.8376 14.25662208902994 RESURS 1 25394U 98043A 15266.96708706 -.00000031 00000-0 46434-5 0 9991 2 25394 98.4761 218.5370 0001705 31.0715 8.6788 14.24457279894346 FENGYUN1 1 25730U 99025A 15267.42681741 .00000613 00000-0 34832-3 0 9999 2 25730 98.9503 232.2990 0018923 222.0257 252.9134 14.13632652843074 OKEAN-0 1 25860U 99039A 15267.01205137 .00000313 00000-0 52830-4 0 9990 2 25860 98.1065 235.2932 0001583 69.5094 330.8698 14.76137097870566 NOAA-16 1 26536U 00055A 15267.22265847 -.00000007 00000-0 20102-4 0 9996 2 26536 98.9331 333.0604 0009730 316.6678 43.3728 14.13108848773644 NOAA-17 1 27453U 02032A 15267.51167438 .00000031 00000-0 30941-4 0 9999 2 27453 98.3503 248.6390 0010485 250.1285 109.8766 14.24899817688804 NOAA-18 1 28654U 05018A 15267.53499650 .00000060 00000-0 57961-4 0 9999 2 28654 99.1909 262.6344 0015047 45.0614 315.1775 14.12234751533097 NOAA-19 1 33591U 09005A 15267.44489252 .00000154 00000-0 10894-3 0 9999 2 33591 99.0000 217.6088 0012961 249.6947 110.2832 14.11979906341498 HUBBLE 1 20580U 90037B 15267.22041021 .00001385 00000-0 77133-4 0 9999 2 20580 28.4697 220.9373 0002833 216.4996 286.0323 15.07706144194779 ISS 1 25544U 98067A 15266.60387819 .00006763 00000-0 10931-3 0 9991 2 25544 51.6461 312.7088 0005285 310.9653 150.8427 15.54127306963358 CO-58 1 28895U 05043F 15266.75775392 .00000383 00000-0 83528-4 0 9993 2 28895 097.8223 089.3958 0016808 349.8575 010.2286 14.62900817527776 FALCON 1 30776U 07006E 15266.91648146 .00006103 00000-0 23652-3 0 9996 2 30776 035.4263 101.6492 0001133 006.8309 098.5749 15.25562673471382 MAST 1 31126U 07012K 15266.87614081 .00000416 00000-0 99366-4 0 9996 2 31126 097.9728 230.4910 0090682 348.9877 038.6976 14.56147137447796 CAPE1 1 31130U 07012P 15267.17212447 .00000646 00000-0 14928-3 0 9990 2 31130 97.9941 228.1488 0097490 8.2740 352.0038 14.55614861447289 COMPASS 1 32787U 08021E 15267.20052776 .00001559 00000-0 16259-3 0 9994 2 32787 97.6415 311.7995 0014605 85.5675 274.7212 14.91084495401261 AAUSAT2 1 32788U 08021F 15267.19105389 .00001529 00000-0 15533-3 0 9993 2 32788 97.6425 313.4744 0014012 82.3571 277.9239 14.92166153401364 DO-64 1 32789U 08021G 15266.88593740 .00002937 00000-0 23582-3 0 9998 2 32789 097.6590 325.6446 0012338 092.1797 320.7271 15.00777879401771 CO-66 1 32791U 08021J 15266.81318676 .00001066 00000-0 11862-3 0 9997 2 32791 097.6412 308.9693 0015382 093.2307 267.0671 14.89053593400914 RS-30 1 32953U 08025A 15267.31364251 .00000010 00000-0 -13620-7 0 9994 2 32953 82.4986 272.5935 0017705 221.0926 138.8820 12.43063713332925 METEOR-M 1 35865U 09049A 15267.21680471 -.00000008 00000-0 15161-4 0 9996 2 35865 98.4916 303.9674 0002621 162.0999 248.2560 14.22048409312282 RS-38 1 35869U 09049E 15267.08113057 -.00000022 00000-0 88081-5 0 9994 2 35869 98.4825 303.4177 0004414 172.7719 187.3536 14.22309236312316 JUGNU 1 37839U 11058B 15266.56946927 .00000371 00000-0 55991-4 0 9997 2 37839 19.9621 326.0839 0019169 50.9434 97.0146 14.12489287204146 SRMSAT 1 37841U 11058D 15266.65180394 .00000337 00000-0 40165-4 0 9997 2 37841 019.9730 354.2928 0011858 334.5966 175.4297 14.10497548203773 RAX-2 1 37853U 11061D 15267.21622238 .00003481 00000-0 21479-3 0 9994 2 37853 101.6988 166.9667 0194081 145.6465 215.7471 14.96915168211917 AUBIESAT 1 37854U 11061E 15267.17924558 .00002901 00000-0 17533-3 0 9992 2 37854 101.6933 170.9578 0185201 140.1567 221.3409 14.99076459212044 HRBE 1 37855U 11061F 15267.20145320 .00003317 00000-0 19782-3 0 9999 2 37855 101.6933 169.3017 0195955 142.9653 218.5266 14.97884313211972 HORYU-2 1 38340U 12025D 15266.85823753 .00000734 00000-0 11839-3 0 9998 2 38340 98.3246 239.4022 0012697 137.4395 222.7799 14.74497203180076 RS-40 1 38735U 12041C 15267.22890390 .00000040 00000-0 21992-3 0 9998 2 38735 82.4805 358.2236 0016046 327.9830 32.0274 12.42570170143211 PROITERES 1 38756U 12047B 15267.31822613 .00000366 00000-0 61100-4 0 9997 2 38756 98.2250 8.3122 0012027 347.4525 12.6386 14.75923336163622 BEESAT-3 1 39134U 13015E 15266.65662687 .00003621 00000-0 21271-3 0 9994 2 39134 064.8715 102.2319 0025377 239.3782 120.4839 15.13096363133213 BEESAT-2 1 39136U 13015G 15266.69133398 .00002878 00000-0 17978-3 0 9994 2 39136 064.8723 105.3629 0026104 237.6984 122.1611 15.11308854133155 ZACUBE-1 1 39417U 13066B 15266.91877043 .00000750 00000-0 10317-3 0 9996 2 39417 097.7202 325.6892 0060511 173.5280 186.6728 14.79901765099237 TRITON-1 1 39427U 13066M 15266.92390264 .00000525 00000-0 93600-4 0 9990 2 39427 097.7049 311.8207 0114827 211.2114 148.2240 14.66796623098143 DELFIN3XT 1 39428U 13066N 15267.07807647 .00000904 00000-0 15714-3 0 9996 2 39428 97.7059 310.1058 0123105 216.2685 143.0129 14.65635994 98228 GOMX-1 1 39430U 13066Q 15267.36876241 .00000429 00000-0 88677-4 0 9998 2 39430 97.6982 303.2842 0152091 237.1344 121.5138 14.58209153 97832 MO-76 1 39436U 13066W 15267.16777172 .00016763 00000-0 10313-2 0 9993 2 39436 97.7391 344.1106 0021869 126.5921 233.7324 15.09898792100412 LO-74 1 39440U 13066AA 15267.20238728 .00000720 00000-0 10951-3 0 9997 2 39440 97.7140 320.4568 0081757 186.7836 173.2275 14.74704923 98921 PUCPSAT-1 1 39442U 13066AC 15266.88689781 .00001269 00000-0 13976-3 0 9990 2 39442 097.7309 334.6203 0033629 154.9657 205.3200 14.88888517097938 SPROUT 1 39770U 14029E 15267.36952634 .00001912 00000-0 23531-3 0 9991 2 39770 97.8729 2.8602 0008711 231.3720 128.6736 14.84115254 72347 POPSAT-HIP1 1 40028U 14033U 15267.36412118 .00000906 00000-0 10671-3 0 9995 2 40028 97.9449 167.8254 0013191 213.5505 146.4900 14.87244905 68526 EO-80 1 40032U 14033Y 15267.31371491 .00000977 00000-0 11543-3 0 9990 2 40032 97.9411 167.3539 0011347 207.4031 152.6587 14.86928836 68507 VELOX-1 1 40057U 14034E 15267.38306115 .00000883 00000-0 13582-3 0 9997 2 40057 98.2114 347.0976 0010242 285.6832 74.3240 14.76064219 66510 DAURIA DX 1 1 40071U 14037C 15267.34581960 .00000408 00000-0 60802-4 0 9996 2 40071 98.3501 342.8089 0007411 285.3894 74.6495 14.80506381 65468 UKUBE-1 1 40074U 14037F 15267.39237382 .00000917 00000-0 12169-3 0 9997 2 40074 98.3526 343.9646 0003689 295.8507 64.2332 14.82427232 65531 HODOYOSHI-1 1 40299U 14070B 15267.37695756 .00015764 00000-0 73127-3 0 9991 2 40299 97.4511 347.6618 0014236 140.9883 291.2865 15.20041546 48886 CHUBUSAT-1 1 40300U 14070C 15267.37193440 .00002756 00000-0 13725-3 0 9992 2 40300 97.4486 346.6566 0022673 145.7744 285.5383 15.18203296 48828 QSAT-EOS 1 40301U 14070D 15267.37065113 .00005348 00000-0 26246-3 0 9990 2 40301 97.4441 345.9070 0032011 147.4804 285.1116 15.18060560 48785 TSUBAME 1 40302U 14070E 15267.38330245 .00002865 00000-0 15989-3 0 9996 2 40302 97.4413 344.1330 0043129 153.3245 275.9444 15.13549544 48670 FIREBIRD FU3 1 40377U 15003B 15267.09746500 .00004611 00000-0 22794-3 0 9991 2 40377 99.1088 318.9150 0153595 289.4839 68.9848 15.08756152 35456 FIREBIRD FU4 1 40378U 15003C 15267.36002401 .00004744 00000-0 23408-3 0 9997 2 40378 99.1090 319.2344 0153828 288.5748 69.8820 15.08760270 35497 GRIFEX 1 40379U 15003D 15267.38407393 .00002883 00000-0 14773-3 0 9996 2 40379 99.1099 319.0509 0155437 290.2148 68.2419 15.07833627 35482 LAMBDA-SAT 1 40458U 98067GB 15136.30676273 .20783109 12527-4 14817-2 0 9995 2 40458 051.6075 233.7697 0010355 318.5347 043.1720 16.39926603 21161 NO-84 1 40654U 15266.34912250 .00014583 00000-0 35695-3 0 01315 2 40654 054.9894 153.9286 0242302 130.1618 232.0891 15.16154835019056 NO-83 1 40655U 15266.29505324 .00022025 00000-0 52147-3 0 01388 2 40655 054.9873 153.6258 0238437 130.4397 231.7686 15.17359463019054 DEORBITSAIL 1 40719U 15032E 15266.84109593 .00001533 00000-0 23657-3 0 9999 2 40719 98.0426 155.4891 0017943 19.0538 341.1338 14.74722844 11070 OBJECT A 1 40899U 15049A 15267.63178446 .00002837 00000-0 15882-3 0 9996 2 40899 97.4566 275.7006 0014604 256.9452 103.0667 15.13378827 710 OBJECT B 1 40900U 15049B 15267.69834628 .00005002 00000-0 28114-3 0 9995 2 40900 97.4523 275.7607 0014612 258.2274 101.7832 15.13233442 788 OBJECT C 1 40901U 15049C 15267.69858956 .00003677 00000-0 20715-3 0 9991 2 40901 97.4652 275.7699 0013336 252.8403 107.1884 15.13164501311982 OBJECT D 1 40902U 15049D 15267.69908523 .00004240 00000-0 23987-3 0 9999 2 40902 97.4506 275.7603 0013442 250.0915 109.9382 15.13008570 747 OBJECT F 1 40904U 15049F 15267.70004514 .00001450 00000-0 82773-4 0 9999 2 40904 97.4591 275.7639 0013799 244.5804 115.4509 15.12686664132825 OBJECT J 1 40907U 15049J 15267.70194362 .00002912 00000-0 16899-3 0 9992 2 40907 97.4562 275.7589 0014126 232.6766 127.3685 15.12087821133200 OBJECT M 1 40910U 15049M 15267.70245326 .00004074 00000-0 23736-3 0 9992 2 40910 97.4586 275.7596 0015453 231.5110 128.5250 15.11928478 602 OBJECT N 1 40911U 15049N 15267.70191708 .00003056 00000-0 17731-3 0 9994 2 40911 97.4599 275.7614 0014177 234.0207 126.0217 15.12097212 616 OBJECT P 1 40912U 15049P 15267.69733510 .00004056 00000-0 22517-3 0 9995 2 40912 97.4598 275.7677 0016044 230.0673 129.9665 15.13652642 617 /EX